Leadville, CO

6:42 PM MST on November 11, 2019 (GMT -0700)
Lake County

Weather History for KLXV - September, 2019

Change the Weather History Date:

Saturday, September 14, 2019

  Actual Average Record
Temperature  
Mean Temperature 48 °F -  
Max Temperature 68 °F 61 °F 76 °F (1990)
Min Temperature 28 °F 31 °F 19 °F (1993)
Degree Days  
Heating Degree Days 17 19  
Month to date heating degree days 178 236  
Since 1 July heating degree days 771 958  
Cooling Degree Days 0 0  
Month to date cooling degree days 0 0  
Year to date cooling degree days 0 0  
Moisture  
Dew Point 15 °F    
Average Humidity 32    
Maximum Humidity 53    
Minimum Humidity 10    
Precipitation  
Precipitation 0.00 in 0.04 in 0.30 in (2011)
Month to date precipitation 0.31 0.58  
Year to date precipitation 12.85 9.53  
Sea Level Pressure  
Sea Level Pressure 30.11 in    
Wind  
Wind Speed 7 mph (North)    
Max Wind Speed 17 mph    
Max Gust Speed 28 mph    
Visibility 10 miles    
Events      
T = Trace of Precipitation, MM = Missing Value Source: NWS Daily Summary

Daily Weather History Graph

Daily Weather History Graph

Search for Another Location

Airport or City:

Astronomy

Sep. 14, 2019 Rise Set
Actual Time 6:45 AM MDT 7:15 PM MDT
Civil Twilight 6:18 AM MDT 7:42 PM MDT
Nautical Twilight 5:46 AM MDT 8:14 PM MDT
Astronomical Twilight 5:14 AM MDT 8:46 PM MDT
Moon 7:57 PM MDT (9/14) 7:01 AM MDT (9/14)
Length of Visible Light 13h 23m
Length of Day
12h 30m
Full, 100% of the Moon is Illuminated
Sep 14
Full
Sep 21
Last Quarter
Sep 28
New
Oct 5
First Quarter
Oct 13
Full

Hourly Weather History & Observations

Time (MDT) Temp. Windchill Dew Point Humidity Pressure Visibility Wind Dir Wind Speed Gust Speed Precip Events Conditions
12:53 AM 35.1 °F 32.2 °F 16.0 °F 46% 30.12 in 10.0 mi ENE 3.5 mph - N/A   Clear
1:53 AM 30.9 °F - 16.0 °F 54% 30.14 in 10.0 mi Calm Calm - N/A   Clear
2:53 AM 34.0 °F 29.8 °F 17.1 °F 50% 30.12 in 10.0 mi NE 4.6 mph - N/A   Clear
3:53 AM 30.9 °F - 16.0 °F 54% 30.12 in 10.0 mi Calm Calm - N/A   Clear
4:53 AM 34.0 °F - 16.0 °F 48% 30.11 in 10.0 mi Calm Calm - N/A   Clear
5:53 AM 37.0 °F - 17.1 °F 44% 30.12 in 10.0 mi Calm Calm - N/A   Clear
6:53 AM 33.1 °F 28.7 °F 17.1 °F 52% 30.16 in 10.0 mi ENE 4.6 mph - N/A   Clear
8:53 AM 55.0 °F - 16.0 °F 22% 30.13 in 10.0 mi NNE 5.8 mph - N/A   Clear
9:53 AM 59.0 °F - 18.0 °F 20% 30.13 in 10.0 mi North 9.2 mph - N/A   Clear
10:53 AM 60.1 °F - 15.1 °F 17% 30.14 in 10.0 mi WNW 10.4 mph 20.7 mph N/A   Clear
11:53 AM 63.0 °F - 16.0 °F 16% 30.12 in 7.0 mi NNW 12.7 mph 23.0 mph N/A   Clear
12:53 PM 66.0 °F - 15.1 °F 14% 30.12 in 10.0 mi WNW 10.4 mph 21.9 mph N/A   Clear
1:53 PM 66.9 °F - 15.1 °F 14% 30.12 in 10.0 mi NW 11.5 mph 21.9 mph N/A   Clear
2:53 PM 66.9 °F - 12.0 °F 12% 30.07 in 10.0 mi NNW 13.8 mph 24.2 mph N/A   Clear
3:53 PM 68.0 °F - 10.9 °F 11% 30.08 in 10.0 mi NNW 10.4 mph 20.7 mph N/A   Clear
4:53 PM 66.9 °F - 12.9 °F 12% 30.06 in 10.0 mi North 10.4 mph 23.0 mph N/A   Clear
5:53 PM 66.0 °F - 9.0 °F 11% 30.05 in 10.0 mi NW 8.1 mph 20.7 mph N/A   Clear
6:53 PM 62.1 °F - 10.0 °F 13% 30.11 in 10.0 mi North 6.9 mph - N/A   Clear
7:53 PM 52.0 °F - 15.1 °F 23% 30.14 in 10.0 mi NE 3.5 mph - N/A   Clear
8:53 PM 45.0 °F 41.2 °F 15.1 °F 30% 30.11 in 10.0 mi NNE 6.9 mph - N/A   Clear
9:53 PM 45.0 °F 40.6 °F 15.1 °F 30% 30.09 in 10.0 mi ENE 8.1 mph - N/A   Clear
10:53 PM 42.1 °F 36.6 °F 16.0 °F 35% 30.09 in 10.0 mi North 9.2 mph - N/A   Clear
11:53 PM 41.0 °F 36.4 °F 15.1 °F 35% 30.07 in 10.0 mi East 6.9 mph - N/A   Clear